Simultaneous Nadir Overpasses (SNOs) Predictions

Prediction of SNOs between AQUA and METOP-A Satellite Orbit:

Table of predicted SNOs for the next 14.0 days since TLE Epoch: 4/6/2012
Index Date (AQUA) Time (AQUA) AQUA Lat,Lon Date (METOP-A) Time (METOP-A) METOP-A Lat,Lon Distance(km) Time Diff (sec)
1 04/09/2012 03:09:48 -73.80, -53.18 04/09/2012 03:09:17 -73.77, -53.21 3.39 31
2 04/09/2012 03:59:17 73.87, 114.28 04/09/2012 03:59:55 73.87, 114.36 2.49 38
3 04/11/2012 22:44:05 -73.83, 13.20 04/11/2012 22:43:37 -73.81, 13.30 3.68 28
4 04/11/2012 23:33:33 73.85,-179.23 04/11/2012 23:34:16 73.86,-179.25 0.86 43
5 04/14/2012 18:18:19 -73.78, 79.73 04/14/2012 18:17:57 -73.79, 79.66 2.27 22
6 04/14/2012 19:07:48 73.87,-112.82 04/14/2012 19:08:35 73.89,-112.77 2.64 47
7 04/17/2012 13:02:56 73.13, -20.09 04/17/2012 13:01:50 73.07, -22.87 89.94 66
8 04/17/2012 13:52:35 -73.82, 146.09 04/17/2012 13:52:17 -73.80, 146.12 2.52 18
9 04/17/2012 14:42:03 73.86, -46.36 04/17/2012 14:42:56 73.85, -46.44 2.71 53
10 04/20/2012 08:37:14 73.31, 45.98 04/20/2012 08:36:06 73.27, 44.00 63.54 68
11 04/20/2012 09:26:49 -73.79,-147.40 04/20/2012 09:26:37 -73.80,-147.46 2.06 12
12 04/20/2012 10:16:18 73.89, 20.03 04/20/2012 10:17:15 73.90, 20.10 2.72 57




NCC Satellite Simultaneous Nadir Overpasses (SNOs) Prediction Service
